Waarnemingen

Advertentie
Mijn weer
Görlitz, Duitsland (10499): temperatuur & dauwpunt: 22.05.2017 06:00:00 - 28.05.2017 06:00:00 (CEST)Görlitz, Duitsland (10499): temperatuur 5cm & temperatuur -5cm: 22.05.2017 06:00:00 - 28.05.2017 06:00:00 (CEST)Görlitz, Duitsland (10499): temperatuur -20cm & temperatuur -100cm: 22.05.2017 06:00:00 - 28.05.2017 06:00:00 (CEST)Görlitz, Duitsland (10499): windsnelheid & windstoten: 22.05.2017 06:00:00 - 28.05.2017 06:00:00 (CEST)Görlitz, Duitsland (10499): windrichting: 22.05.2017 06:00:00 - 28.05.2017 06:00:00 (CEST)Görlitz, Duitsland (10499): luchtdruk: 22.05.2017 06:00:00 - 28.05.2017 06:00:00 (CEST)Görlitz, Duitsland (10499): zicht: 22.05.2017 06:00:00 - 28.05.2017 06:00:00 (CEST)Görlitz, Duitsland (10499): Zonneschijnduur: 22.05.2017 06:00:00 - 28.05.2017 06:00:00 (CEST)Görlitz, Duitsland (10499): neerslag: 22.05.2017 06:00:00 - 28.05.2017 06:00:00 (CEST)
Datum & Tijd tt [°C] td [°C] tt 5cm [°C] tt -5cm [°C] tt -20cm [°C] tt -100cm [°C] ff [km/u] ff [kn] fx [km/u] fx [kn] dd ppp [hPa] vv [km] sd [min] rr [mm]
28.05.2017 06:00:00 16,5 7,8 15,7 16,8 17,9 13,5 25 14 35 19 Z 1022,2 65 45 0,0
28.05.2017 05:00:00 15,8 8,0 13,6 17,1 18,1 13,5 19 10 27 15 Z 1022,6 60 0 0,0
28.05.2017 04:00:00 12,1 7,8 8,9 17,6 18,4 13,5 8 4 13 7 ZZW 1023,0 30 0 0,0
28.05.2017 03:00:00 11,4 9,4 9,9 18,0 18,6 13,5 7 4 12 7 ZZO 1023,3 35 0 0,0
28.05.2017 02:00:00 12,1 8,5 9,7 18,6 18,9 13,5 5 3 9 5 ZZW 1023,4 35 0 0,0
28.05.2017 01:00:00 13,8 8,5 10,6 19,2 19,1 13,5 7 4 13 7 ZZO 1023,4 35 0 0,0
28.05.2017 00:00:00 14,5 8,4 11,2 19,9 19,3 13,5 8 5 17 9 ZO 1023,2 40 0 0,0
27.05.2017 23:00:00 17,0 8,7 14,9 20,6 19,5 13,5 11 6 18 10 O 1023,0 40 0 0,0
27.05.2017 22:00:00 18,2 8,6 16,2 21,4 19,5 13,5 12 6 22 12 O 1022,5 50 0 0,0
27.05.2017 21:00:00 19,3 8,5 17,5 22,2 19,5 13,5 11 6 20 11 O 1022,2 70 57 0,0
27.05.2017 20:00:00 21,1 6,3 20,2 22,9 19,4 13,5 14 8 27 15 O 1021,9 75 60 0,0
27.05.2017 19:00:00 21,9 7,3 22,5 23,4 19,1 13,5 17 9 24 13 OZO 1021,8 80 60 0,0
27.05.2017 18:00:00 22,9 6,7 25,1 23,6 18,7 13,5 12 7 26 14 O 1021,6 80 60 0,0
27.05.2017 17:00:00 23,0 7,0 26,3 23,5 18,3 13,5 14 7 26 14 ONO 1021,9 80 60 0,0
27.05.2017 16:00:00 23,1 7,6 27,8 23,0 17,8 13,4 10 6 21 11 ONO 1022,2 80 60 0,0
27.05.2017 15:00:00 22,8 8,1 28,6 22,2 17,4 13,4 10 6 21 11 ONO 1022,5 80 60 0,0
27.05.2017 14:00:00 21,9 7,7 27,5 21,1 17,0 13,4 14 8 22 12 O 1023,1 80 60 0,0
27.05.2017 13:00:00 21,1 8,0 27,4 20,0 16,6 13,4 10 5 26 14 O 1023,5 80 60 0,0
27.05.2017 12:00:00 20,7 8,2 26,2 18,8 16,4 13,4 14 8 25 13 NO 1023,8 80 60 0,0
27.05.2017 11:00:00 19,7 7,7 24,1 17,7 16,2 13,4 16 9 26 14 NO 1023,9 72 60 0,0
27.05.2017 10:00:00 19,1 8,8 23,6 16,6 16,1 13,4 10 6 15 8 ONO 1023,9 55 60 0,0
27.05.2017 09:00:00 17,4 10,1 21,3 15,8 16,2 13,4 7 4 11 6 ONO 1023,7 30 60 0,0
27.05.2017 08:00:00 15,6 10,9 18,4 15,3 16,4 13,4 5 3 9 5 O 1023,6 30 60 0,0
27.05.2017 07:00:00 13,0 10,5 14,6 15,3 16,6 13,4 5 3 9 5 ONO 1023,3 30 60 0,0
27.05.2017 06:00:00 10,1 8,0 9,9 15,6 16,8 13,3 3 2 6 4 NNW 1023,3 18 38 0,0
27.05.2017 05:00:00 10,6 9,7 7,6 15,9 17,0 13,3 5 3 7 4 W 1023,2 15 0 0,0
27.05.2017 04:00:00 9,7 8,8 7,5 16,4 17,2 13,3 5 3 8 4 W 1023,1 13 0 0,0
27.05.2017 03:00:00 10,6 9,5 8,1 16,8 17,4 13,3 5 3 7 4 NW 1022,7 20 0 0,0
27.05.2017 02:00:00 11,2 9,5 9,2 17,3 17,7 13,4 7 4 9 5 W 1022,4 20 0 0,0
27.05.2017 01:00:00 12,1 10,0 9,8 17,8 17,8 13,3 5 3 6 3 W 1022,4 30 0 0,0
27.05.2017 00:00:00 12,8 10,2 10,2 18,3 18,0 13,3 3 2 10 6 W 1022,0 25 0 0,0
26.05.2017 23:00:00 14,7 10,6 13,2 19,0 18,1 13,3 10 5 17 9 NNO 1021,4 35 0 0,0
26.05.2017 22:00:00 14,9 10,8 12,9 19,7 18,1 13,3 11 6 18 10 NNO 1020,9 50 0 0,0
26.05.2017 21:00:00 18,4 9,9 15,1 20,3 18,1 13,4 6 3 14 7 NNW 1019,7 60 54 0,0
26.05.2017 20:00:00 19,3 10,9 19,4 20,8 18,0 13,4 13 7 25 13 N 1019,5 55 52 0,0
26.05.2017 19:00:00 20,0 10,0 21,0 21,3 17,7 13,4 18 10 34 18 N 1019,0 45 55 0,0
26.05.2017 18:00:00 21,5 10,3 25,0 21,4 17,4 13,4 14 8 33 18 NNW 1018,6 55 51 0,0
26.05.2017 17:00:00 21,9 10,2 26,4 21,2 17,1 13,4 18 10 32 17 WNW 1018,7 55 51 0,0
26.05.2017 16:00:00 22,6 12,3 30,6 20,8 16,7 13,4 10 6 26 14 WNW 1018,8 60 24 0,0
26.05.2017 15:00:00 21,4 11,6 28,9 20,2 16,3 13,3 16 8 24 13 WNW 1019,2 55 42 0,0
26.05.2017 14:00:00 20,7 11,0 27,6 19,4 15,9 13,3 14 7 27 15 WNW 1019,6 50 44 0,0
26.05.2017 13:00:00 20,9 11,0 30,4 18,4 15,6 13,3 14 7 27 14 NW 1019,8 50 50 0,0
26.05.2017 12:00:00 19,6 10,7 27,8 17,4 15,3 13,3 12 6 27 15 NW 1020,2 45 56 0,0
26.05.2017 11:00:00 18,3 10,7 25,3 16,3 15,2 13,3 13 7 26 14 NW 1020,5 45 54 0,0
26.05.2017 10:00:00 17,0 11,4 23,3 15,3 15,1 13,3 14 7 23 12 WNW 1020,8 42 59 0,0
26.05.2017 09:00:00 16,0 9,7 21,8 14,5 15,2 13,4 11 6 18 10 W 1020,7 50 60 0,0
26.05.2017 08:00:00 13,7 8,4 18,3 14,1 15,3 13,4 8 4 13 7 W 1021,0 50 60 0,0
26.05.2017 07:00:00 11,6 8,4 14,3 14,1 15,5 13,3 8 4 14 8 W 1021,2 45 60 0,0
26.05.2017 06:00:00 9,6 7,2 9,4 14,3 15,7 13,4 5 3 11 6 W 1021,1 40 38 0,0
26.05.2017 05:00:00 8,9 7,1 6,5 14,7 15,9 13,4 8 5 13 7 WZW 1021,0 23 0 0,0
26.05.2017 04:00:00 9,7 7,4 7,2 15,1 16,1 13,4 8 5 10 5 WZW 1021,2 35 0 0,0
26.05.2017 03:00:00 10,4 7,9 8,4 15,5 16,3 13,4 6 3 10 5 WZW 1021,2 35 0 0,0
26.05.2017 02:00:00 10,2 8,0 9,4 15,8 16,4 13,3 8 4 10 5 WZW 1021,3 25 0 0,0
26.05.2017 01:00:00 10,9 8,5 9,5 16,2 16,6 13,3 8 4 11 6 WZW 1021,5 35 0 0,0
26.05.2017 00:00:00 11,0 8,5 8,4 16,8 16,7 13,3 7 4 9 5 WZW 1021,5 35 0 0,0
25.05.2017 23:00:00 12,8 8,9 9,7 17,3 16,8 13,3 5 3 10 5 WNW 1021,1 45 0 0,0
25.05.2017 22:00:00 13,3 9,1 13,0 17,8 16,8 13,4 9 5 19 11 NNW 1020,7 50 0 0,0
25.05.2017 21:00:00 14,8 9,0 14,4 18,3 16,8 13,4 7 4 12 7 WNW 1020,2 60 0 0,0
25.05.2017 20:00:00 15,7 8,6 15,7 18,7 16,7 13,4 6 3 21 12 W 1019,9 60 12 0,0
25.05.2017 19:00:00 16,5 8,4 18,4 19,0 16,5 13,4 10 6 23 12 WNW 1020,2 60 18 0,0
25.05.2017 18:00:00 17,5 8,0 21,8 19,1 16,2 13,4 16 8 31 17 WNW 1020,1 65 31 0,0
25.05.2017 17:00:00 18,3 8,8 24,0 18,8 16,0 13,4 13 7 27 15 WNW 1020,2 60 30 0,0
25.05.2017 16:00:00 16,6 7,7 20,2 18,6 15,7 13,4 16 9 28 15 WNW 1020,5 55 17 0,0
25.05.2017 15:00:00 16,9 7,7 21,4 18,1 15,4 13,4 13 7 30 16 WNW 1020,7 50 43 0,0
25.05.2017 14:00:00 16,1 7,4 21,5 17,4 15,1 13,4 15 8 26 14 WNW 1020,9 50 20 0,0
25.05.2017 13:00:00 15,9 6,7 21,7 16,8 14,9 13,4 13 7 30 16 NW 1021,0 45 29 0,0
25.05.2017 12:00:00 15,9 8,0 22,3 16,0 14,7 13,4 18 10 31 17 W 1021,4 42 24 0,0
25.05.2017 11:00:00 14,5 8,2 18,2 15,4 14,5 13,4 15 8 26 14 WNW 1021,5 42 36 0,0
25.05.2017 10:00:00 14,4 8,5 21,6 14,4 14,4 13,4 15 8 24 13 W 1021,5 42 59 0,0
25.05.2017 09:00:00 13,3 8,6 19,2 13,7 14,5 13,4 8 4 19 10 W 1021,6 42 56 0,0
25.05.2017 08:00:00 12,0 8,0 16,2 13,3 14,6 13,4 9 5 15 8 WNW 1021,5 42 48 0,0
25.05.2017 07:00:00 10,2 7,1 12,4 13,3 14,7 13,4 11 6 17 9 W 1021,6 42 59 0,0
25.05.2017 06:00:00 9,3 6,9 8,8 13,5 14,8 13,4 8 5 16 9 W 1021,4 40 13 0,0
25.05.2017 05:00:00 9,3 7,1 7,9 13,7 15,0 13,4 8 4 13 7 W 1020,9 40 0 0,0
25.05.2017 04:00:00 10,4 7,8 10,1 13,9 15,1 13,4 8 4 15 8 WNW 1020,6 35 0 0,0
25.05.2017 03:00:00 10,3 7,6 10,2 14,1 15,2 13,4 9 5 16 8 WNW 1020,6 35 0 0,0
25.05.2017 02:00:00 10,5 7,5 10,4 14,2 15,4 13,4 8 5 14 8 WNW 1020,7 35 0 0,0
25.05.2017 01:00:00 10,4 7,4 10,1 14,4 15,5 13,4 7 4 11 6 W 1020,8 30 0 0,0
25.05.2017 00:00:00 10,4 6,9 9,4 14,7 15,7 13,4 7 4 13 7 WNW 1020,9 25 0 0,0
24.05.2017 23:00:00 10,9 7,4 10,3 15,0 15,8 13,4 9 5 15 8 NW 1020,7 20 0 0,0
24.05.2017 22:00:00 11,2 7,7 9,8 15,4 15,8 13,4 5 3 8 4 W 1020,6 25 0 0,0
24.05.2017 21:00:00 12,1 7,5 10,0 15,7 15,9 13,4 6 3 9 5 WNW 1019,9 40 5 0,0
24.05.2017 20:00:00 13,2 7,3 13,3 16,0 15,9 13,4 6 3 16 9 NW 1019,3 35 2 0,0
24.05.2017 19:00:00 13,5 6,5 14,3 16,1 15,9 13,4 9 5 19 10 NNW 1019,2 45 0 0,0
24.05.2017 18:00:00 13,8 6,6 15,2 16,1 15,9 13,4 10 5 24 13 NNW 1019,2 55 0 0,0
24.05.2017 17:00:00 13,9 5,6 15,5 16,0 15,9 13,4 19 10 32 17 NNW 1019,2 55 1 0,0
24.05.2017 16:00:00 13,9 5,7 17,3 15,7 15,9 13,3 17 9 34 18 NW 1019,0 50 5 0,0
24.05.2017 15:00:00 13,2 5,5 16,6 15,4 15,9 13,3 19 10 38 21 NW 1019,2 50 0 0,0
24.05.2017 14:00:00 12,3 5,5 14,3 15,3 16,0 13,2 18 10 34 19 NW 1019,6 55 1 0,0
24.05.2017 13:00:00 11,5 5,9 12,8 15,3 16,1 13,2 20 11 37 20 WNW 1019,4 55 0 0,0
24.05.2017 12:00:00 11,4 5,9 12,8 15,3 16,3 13,2 18 10 37 20 W 1019,5 55 0 0,0
24.05.2017 11:00:00 11,3 5,4 13,0 15,3 16,4 13,2 16 9 41 22 NW 1019,1 50 0 0,0
24.05.2017 10:00:00 11,0 6,5 12,0 15,4 16,6 13,2 18 10 36 20 W 1018,8 50 0 0,0
24.05.2017 09:00:00 10,7 6,7 11,5 15,6 16,8 13,2 16 9 33 18 WNW 1018,7 45 0 0,0
24.05.2017 08:00:00 10,4 7,1 11,1 15,8 17,0 13,2 16 8 - - WNW 1018,4 30 6 0,0
24.05.2017 07:00:00 10,8 7,2 13,0 16,1 17,2 13,2 22 12 41 22 WNW 1017,9 25 28 0,0
24.05.2017 06:00:00 10,5 7,0 10,1 16,6 17,4 13,2 21 11 41 22 WNW 1017,5 35 0 0,0
24.05.2017 05:00:00 12,5 10,2 12,1 17,0 17,6 13,1 15 8 34 18 WNW 1016,8 25 0 0,0
24.05.2017 04:00:00 13,4 11,6 12,8 17,3 17,8 13,1 12 6 25 13 WNW 1016,4 25 0 0,0
24.05.2017 03:00:00 13,6 12,1 13,3 17,7 18,0 13,1 11 6 17 9 W 1016,1 25 0 0,0
24.05.2017 02:00:00 13,0 12,1 12,7 18,2 18,2 13,1 11 6 14 8 WZW 1015,7 30 0 0,0
24.05.2017 01:00:00 13,8 13,1 13,5 18,6 18,4 13,1 10 5 48 26 NNO 1015,4 25 0 2,6
24.05.2017 00:00:00 14,9 12,3 13,9 19,2 18,5 13,1 27 14 52 28 NW 1016,3 25 0 0,4
23.05.2017 23:00:00 16,6 11,2 14,3 19,7 18,6 13,1 8 5 16 9 NW 1015,4 30 0 0,4
23.05.2017 22:00:00 17,2 9,3 14,1 20,3 18,6 13,1 9 5 13 7 ZW 1014,8 30 0 0,0
23.05.2017 21:00:00 18,7 10,1 17,1 20,9 18,5 13,1 9 5 14 8 ZW 1014,6 40 16 0,0
23.05.2017 20:00:00 20,5 10,5 20,6 21,3 18,4 13,1 8 4 20 11 WZW 1014,3 40 43 0,0
23.05.2017 19:00:00 21,5 8,0 22,2 21,7 18,2 13,1 14 8 26 14 W 1014,3 50 60 0,0
23.05.2017 18:00:00 22,6 9,6 25,9 21,8 17,9 13,1 13 7 26 14 W 1014,4 50 60 0,0
23.05.2017 17:00:00 22,7 8,9 28,2 21,8 17,6 13,1 13 7 28 15 WNW 1014,7 50 54 0,0
23.05.2017 16:00:00 22,1 8,5 27,0 21,5 17,2 13,1 15 8 33 18 WNW 1015,0 50 58 0,0
23.05.2017 15:00:00 22,8 10,2 30,4 21,0 16,8 13,1 13 7 26 14 W 1015,0 50 59 0,0
23.05.2017 14:00:00 22,1 8,6 31,4 20,2 16,4 13,1 12 7 23 12 WNW 1015,5 50 60 0,0
23.05.2017 13:00:00 22,0 8,0 31,9 19,1 16,1 13,1 12 6 19 11 WNW 1015,9 50 60 0,0
23.05.2017 12:00:00 21,0 7,0 31,1 17,9 15,8 13,1 6 3 19 10 WZW 1016,3 50 60 0,0
23.05.2017 11:00:00 19,6 8,0 28,6 16,8 15,7 13,0 8 4 13 7 W 1016,6 50 60 0,0
23.05.2017 10:00:00 18,4 10,8 25,8 15,8 15,6 13,0 4 2 12 6 W 1016,9 50 60 0,0
23.05.2017 09:00:00 15,5 9,0 23,3 15,1 15,7 13,0 6 3 10 5 W 1017,3 50 60 0,0
23.05.2017 08:00:00 13,2 8,5 17,6 14,7 15,9 13,0 2 1 6 3 ZW 1017,6 50 57 0,0
23.05.2017 07:00:00 11,6 8,1 13,9 14,7 16,1 13,0 1 1 6 3 ZO 1017,4 50 60 0,0
23.05.2017 06:00:00 7,7 6,0 8,1 15,0 16,3 13,0 3 1 5 3 Z 1017,7 45 21 0,0
23.05.2017 05:00:00 9,0 7,9 6,5 15,3 16,5 13,0 3 2 9 5 OZO 1017,5 27 0 0,0
23.05.2017 04:00:00 8,5 7,0 7,3 15,7 16,7 13,0 3 1 8 4 WNW 1017,7 20 0 0,0
23.05.2017 03:00:00 8,9 7,0 6,4 16,2 17,0 13,0 3 2 6 4 WZW 1017,9 28 0 0,0
23.05.2017 02:00:00 9,8 7,4 7,3 16,6 17,2 13,0 2 1 7 4 ZZW 1017,9 35 0 0,0
23.05.2017 01:00:00 11,1 7,7 7,8 17,1 17,3 13,0 4 2 8 4 Z 1018,3 40 0 0,0
23.05.2017 00:00:00 10,3 7,9 8,3 17,6 17,5 13,0 2 1 7 4 N 1018,6 40 0 0,0
22.05.2017 23:00:00 13,8 7,1 10,8 18,2 17,6 13,0 7 4 11 6 ZO 1018,1 40 0 0,0
22.05.2017 22:00:00 16,2 7,5 13,6 18,8 17,7 13,0 5 3 9 5 O 1018,2 50 0 0,0
22.05.2017 21:00:00 16,5 6,5 13,3 19,5 17,6 13,0 5 3 12 7 ZO 1018,2 60 41 0,0
22.05.2017 20:00:00 18,0 6,4 17,7 19,9 17,5 13,0 4 2 12 6 ONO 1018,0 65 60 0,0
22.05.2017 19:00:00 19,0 6,4 19,9 20,2 17,4 13,0 6 3 15 8 O 1018,1 70 38 0,0
22.05.2017 18:00:00 19,0 5,5 19,8 20,5 17,1 13,0 9 5 18 10 OZO 1018,5 70 53 0,0
22.05.2017 17:00:00 19,6 4,3 22,7 20,4 16,8 13,0 7 4 17 9 ONO 1019,1 70 54 0,0
22.05.2017 16:00:00 19,8 7,6 25,2 20,0 16,5 13,0 6 3 18 10 O 1019,5 70 60 0,0
22.05.2017 15:00:00 19,2 7,2 24,8 19,3 16,2 13,0 9 5 20 11 ONO 1020,1 70 60 0,0
22.05.2017 14:00:00 18,8 7,4 25,8 18,5 15,9 12,9 6 3 23 13 ONO 1020,7 70 60 0,0
22.05.2017 13:00:00 17,4 7,0 22,3 17,8 15,7 12,9 9 5 21 12 ONO 1021,4 70 47 0,0
22.05.2017 12:00:00 17,4 6,9 24,6 16,9 15,5 12,9 7 4 21 11 NO 1021,8 70 60 0,0
22.05.2017 11:00:00 16,4 6,4 21,8 16,0 15,4 12,9 10 6 23 12 O 1022,4 65 60 0,0
22.05.2017 10:00:00 15,3 6,9 19,8 15,3 15,4 12,9 14 7 22 12 O 1022,7 55 54 0,0
22.05.2017 09:00:00 14,2 7,1 18,4 14,8 15,5 12,9 9 5 17 9 NO 1023,1 55 46 0,0
22.05.2017 08:00:00 13,2 6,5 15,9 14,4 15,7 12,9 10 5 19 10 ONO 1023,3 70 60 0,0
22.05.2017 07:00:00 10,0 6,6 13,7 14,3 15,9 12,9 2 1 5 3 WNW 1023,9 70 50 0,0
22.05.2017 06:00:00 7,2 4,6 6,8 14,6 16,1 12,9 3 2 6 3 NNW 1024,1 70 15 0,0

tt = temperatuur
td = dauwpunt
tt 5cm = temperatuur 5cm
tt -5cm = temperatuur -5cm
tt -20cm = temperatuur -20cm
tt -100cm = temperatuur -100cm
ff = windsnelheid
fx = windstoten
dd = windrichting
ppp = luchtdruk
vv = zicht
sd = Zonneschijnduur
rr = neerslag

Weerstations in de omgeving